Time,TemperatureF,DewpointF,PressureIn,WindDirection,WindDirectionDegrees,WindSpeedMPH,WindSpeedGustMPH,Humidity,HourlyPrecipIn,Conditions,Clouds,dailyrainin,SoftwareType,DateUTC
2013-06-25 00:01:00,66.1,64.5,29.36,NNW,337,0.0,3.0,96,0.00,,,0.00,Rainwise IP-100,2013-06-25 04:01:00,
2013-06-25 00:06:00,66.0,64.5,29.36,NNW,337,0.0,0.0,96,0.00,,,0.00,Rainwise IP-100,2013-06-25 04:06:00,
2013-06-25 00:11:00,65.9,65.0,29.36,NNW,337,0.0,1.0,97,0.00,,,0.00,Rainwise IP-100,2013-06-25 04:11:00,
2013-06-25 00:16:00,65.9,65.0,29.36,NNE,22,3.0,5.0,97,0.00,,,0.00,Rainwise IP-100,2013-06-25 04:16:00,
2013-06-25 00:21:00,65.9,64.5,29.36,NE,45,0.0,4.0,96,0.00,,,0.00,Rainwise IP-100,2013-06-25 04:21:00,
2013-06-25 00:26:00,66.0,65.5,29.36,SW,225,6.0,6.0,98,0.00,,,0.00,Rainwise IP-100,2013-06-25 04:26:00,
2013-06-25 00:31:00,65.8,65.5,29.36,NNE,22,3.0,6.0,98,0.00,,,0.00,Rainwise IP-100,2013-06-25 04:31:00,
2013-06-25 00:36:00,65.9,65.5,29.37,WSW,247,2.0,6.0,98,0.00,,,0.00,Rainwise IP-100,2013-06-25 04:36:00,
2013-06-25 00:42:00,65.9,65.5,29.36,NNE,22,1.0,5.0,98,0.00,,,0.00,Rainwise IP-100,2013-06-25 04:42:00,
2013-06-25 00:47:00,65.9,65.5,29.36,WSW,247,4.0,6.0,98,0.00,,,0.00,Rainwise IP-100,2013-06-25 04:47:00,
2013-06-25 00:52:00,65.9,65.5,29.35,WSW,247,2.0,6.0,98,0.00,,,0.00,Rainwise IP-100,2013-06-25 04:52:00,
2013-06-25 00:57:00,65.8,65.5,29.35,SW,225,2.0,5.0,98,0.00,,,0.00,Rainwise IP-100,2013-06-25 04:57:00,
2013-06-25 01:00:00,65.5,65.0,29.35,WSW,247,3.0,5.0,99,0.00,,,0.00,Rainwise IP-100,2013-06-25 05:00:00,
2013-06-25 01:05:00,65.3,65.0,29.35,WSW,247,0.0,3.0,98,0.00,,,0.00,Rainwise IP-100,2013-06-25 05:05:00,
2013-06-25 01:10:00,65.1,64.5,29.35,WSW,247,0.0,0.0,98,0.00,,,0.00,Rainwise IP-100,2013-06-25 05:10:00,
2013-06-25 01:15:00,64.9,64.5,29.35,WSW,247,0.0,0.0,98,0.00,,,0.00,Rainwise IP-100,2013-06-25 05:15:00,
2013-06-25 01:20:00,64.8,64.5,29.34,WSW,247,0.0,1.0,98,0.00,,,0.00,Rainwise IP-100,2013-06-25 05:20:00,
2013-06-25 01:26:00,64.8,64.5,29.33,WSW,247,0.0,4.0,98,0.00,,,0.00,Rainwise IP-100,2013-06-25 05:26:00,
2013-06-25 01:31:00,64.6,64.0,29.33,WSW,247,0.0,3.0,98,0.00,,,0.00,Rainwise IP-100,2013-06-25 05:31:00,
2013-06-25 01:36:00,64.4,64.0,29.33,WSW,247,0.0,2.0,98,0.00,,,0.00,Rainwise IP-100,2013-06-25 05:36:00,
2013-06-25 01:41:00,64.3,64.0,29.33,ESE,112,1.0,1.0,98,0.00,,,0.00,Rainwise IP-100,2013-06-25 05:41:00,
2013-06-25 01:46:00,64.1,63.5,29.33,ESE,112,0.0,2.0,98,0.00,,,0.00,Rainwise IP-100,2013-06-25 05:46:00,
2013-06-25 01:51:00,63.8,63.5,29.32,ESE,112,0.0,0.0,98,0.00,,,0.00,Rainwise IP-100,2013-06-25 05:51:00,
2013-06-25 01:56:00,63.7,63.0,29.33,ESE,112,0.0,0.0,98,0.00,,,0.00,Rainwise IP-100,2013-06-25 05:56:00,
2013-06-25 02:02:00,63.4,62.5,29.32,NNE,22,0.0,0.0,97,0.00,,,0.00,Rainwise IP-100,2013-06-25 06:02:00,
2013-06-25 02:07:00,62.9,62.0,29.32,NNE,22,0.0,0.0,97,0.00,,,0.00,Rainwise IP-100,2013-06-25 06:07:00,
2013-06-25 02:12:00,62.7,61.5,29.32,NNE,22,0.0,0.0,97,0.00,,,0.00,Rainwise IP-100,2013-06-25 06:12:00,
2013-06-25 02:17:00,62.5,61.5,29.31,NNE,22,0.0,0.0,97,0.00,,,0.00,Rainwise IP-100,2013-06-25 06:17:00,
2013-06-25 02:22:00,62.3,61.5,29.31,NW,315,0.0,4.0,97,0.00,,,0.00,Rainwise IP-100,2013-06-25 06:22:00,
2013-06-25 02:27:00,62.4,61.5,29.31,NW,315,0.0,0.0,97,0.00,,,0.00,Rainwise IP-100,2013-06-25 06:27:00,
2013-06-25 02:32:00,62.3,62.0,29.31,NW,315,0.0,3.0,98,0.00,,,0.00,Rainwise IP-100,2013-06-25 06:32:00,
2013-06-25 02:37:00,62.2,61.5,29.31,NW,315,1.0,3.0,98,0.00,,,0.00,Rainwise IP-100,2013-06-25 06:37:00,
2013-06-25 02:43:00,62.1,61.5,29.31,NW,315,0.0,2.0,98,0.00,,,0.00,Rainwise IP-100,2013-06-25 06:43:00,
2013-06-25 02:48:00,62.0,61.5,29.31,NW,315,0.0,0.0,98,0.00,,,0.00,Rainwise IP-100,2013-06-25 06:48:00,
2013-06-25 02:53:00,62.0,61.5,29.31,NW,315,0.0,0.0,98,0.00,,,0.00,Rainwise IP-100,2013-06-25 06:53:00,
2013-06-25 02:58:00,62.1,61.5,29.31,NW,315,2.0,3.0,98,0.00,,,0.00,Rainwise IP-100,2013-06-25 06:58:00,
2013-06-25 03:03:00,62.6,61.5,29.30,NW,315,0.0,3.0,97,0.00,,,0.00,Rainwise IP-100,2013-06-25 07:03:00,
2013-06-25 03:08:00,62.7,61.5,29.30,NW,315,0.0,0.0,97,0.00,,,0.00,Rainwise IP-100,2013-06-25 07:08:00,
2013-06-25 03:13:00,62.5,61.5,29.30,NW,315,2.0,0.0,97,0.00,,,0.00,Rainwise IP-100,2013-06-25 07:13:00,
2013-06-25 03:19:00,62.2,61.0,29.30,NW,315,1.0,3.0,97,0.00,,,0.00,Rainwise IP-100,2013-06-25 07:19:00,
2013-06-25 03:24:00,61.7,61.0,29.29,NW,315,0.0,2.0,98,0.00,,,0.00,Rainwise IP-100,2013-06-25 07:24:00,
2013-06-25 03:29:00,61.5,61.0,29.29,NW,315,0.0,0.0,98,0.00,,,0.00,Rainwise IP-100,2013-06-25 07:29:00,
2013-06-25 03:34:00,61.8,61.5,29.29,NW,315,1.0,1.0,99,0.00,,,0.00,Rainwise IP-100,2013-06-25 07:34:00,
2013-06-25 03:39:00,61.6,61.0,29.30,NW,315,0.0,2.0,98,0.00,,,0.00,Rainwise IP-100,2013-06-25 07:39:00,
2013-06-25 03:44:00,61.6,61.0,29.30,NW,315,0.0,0.0,99,0.00,,,0.00,Rainwise IP-100,2013-06-25 07:44:00,
2013-06-25 03:49:00,61.9,61.5,29.30,NW,315,0.0,3.0,99,0.00,,,0.00,Rainwise IP-100,2013-06-25 07:49:00,
2013-06-25 03:54:00,62.3,62.0,29.30,NW,315,0.0,0.0,99,0.00,,,0.00,Rainwise IP-100,2013-06-25 07:54:00,
2013-06-25 04:00:00,62.7,62.0,29.30,NW,315,0.0,0.0,99,0.00,,,0.00,Rainwise IP-100,2013-06-25 08:00:00,
2013-06-25 04:05:00,62.9,62.5,29.30,NW,315,0.0,0.0,99,0.00,,,0.00,Rainwise IP-100,2013-06-25 08:05:00,
2013-06-25 04:10:00,63.1,62.5,29.30,NW,315,0.0,0.0,99,0.00,,,0.00,Rainwise IP-100,2013-06-25 08:10:00,
2013-06-25 04:15:00,63.2,62.5,29.30,NW,315,0.0,0.0,99,0.00,,,0.00,Rainwise IP-100,2013-06-25 08:15:00,
2013-06-25 04:20:00,63.4,63.0,29.31,NW,315,2.0,2.0,99,0.00,,,0.00,Rainwise IP-100,2013-06-25 08:20:00,
2013-06-25 04:25:00,63.4,63.5,29.30,WSW,247,2.0,5.0,100,0.00,,,0.00,Rainwise IP-100,2013-06-25 08:25:00,
2013-06-25 04:30:00,63.5,63.5,29.30,WSW,247,3.0,5.0,100,0.00,,,0.00,Rainwise IP-100,2013-06-25 08:30:00,
2013-06-25 04:36:00,63.7,63.5,29.30,SW,225,0.0,6.0,100,0.00,,,0.00,Rainwise IP-100,2013-06-25 08:36:00,
2013-06-25 04:41:00,63.5,63.5,29.30,SW,225,0.0,4.0,100,0.00,,,0.00,Rainwise IP-100,2013-06-25 08:41:00,
2013-06-25 04:46:00,63.6,63.5,29.31,SW,225,2.0,2.0,100,0.00,,,0.00,Rainwise IP-100,2013-06-25 08:46:00,
2013-06-25 04:51:00,63.6,63.5,29.31,SW,225,0.0,2.0,100,0.00,,,0.00,Rainwise IP-100,2013-06-25 08:51:00,
2013-06-25 04:56:00,63.6,63.5,29.31,SW,225,0.0,0.0,100,0.00,,,0.00,Rainwise IP-100,2013-06-25 08:56:00,
2013-06-25 05:01:00,63.7,63.5,29.31,ENE,67,0.0,5.0,100,0.00,,,0.00,Rainwise IP-100,2013-06-25 09:01:00,
2013-06-25 05:06:00,63.6,63.5,29.31,ENE,67,0.0,3.0,100,0.00,,,0.00,Rainwise IP-100,2013-06-25 09:06:00,
2013-06-25 05:11:00,63.6,63.5,29.31,West,270,3.0,3.0,100,0.00,,,0.00,Rainwise IP-100,2013-06-25 09:11:00,
2013-06-25 05:17:00,63.6,63.5,29.31,WSW,247,1.0,4.0,100,0.00,,,0.00,Rainwise IP-100,2013-06-25 09:17:00,
2013-06-25 05:22:00,63.7,63.5,29.31,WNW,292,1.0,2.0,100,0.00,,,0.00,Rainwise IP-100,2013-06-25 09:22:00,
2013-06-25 05:27:00,63.8,64.0,29.31,NE,45,3.0,4.0,100,0.00,,,0.00,Rainwise IP-100,2013-06-25 09:27:00,
2013-06-25 05:32:00,63.9,64.0,29.31,ENE,67,2.0,5.0,100,0.00,,,0.00,Rainwise IP-100,2013-06-25 09:32:00,
2013-06-25 05:37:00,63.9,64.0,29.31,East,90,2.0,3.0,100,0.00,,,0.00,Rainwise IP-100,2013-06-25 09:37:00,
2013-06-25 05:42:00,64.0,64.0,29.31,ESE,112,1.0,2.0,100,0.00,,,0.00,Rainwise IP-100,2013-06-25 09:42:00,
2013-06-25 05:47:00,64.1,64.0,29.31,ESE,112,2.0,6.0,100,0.00,,,0.00,Rainwise IP-100,2013-06-25 09:47:00,
2013-06-25 05:53:00,64.0,64.0,29.31,ENE,67,0.0,2.0,100,0.00,,,0.00,Rainwise IP-100,2013-06-25 09:53:00,
2013-06-25 05:58:00,63.9,64.0,29.31,NE,45,1.0,4.0,100,0.00,,,0.00,Rainwise IP-100,2013-06-25 09:58:00,
2013-06-25 06:03:00,63.9,64.0,29.31,East,90,3.0,3.0,100,0.00,,,0.00,Rainwise IP-100,2013-06-25 10:03:00,
2013-06-25 06:08:00,63.9,64.0,29.31,East,90,0.0,3.0,100,0.00,,,0.00,Rainwise IP-100,2013-06-25 10:08:00,
2013-06-25 06:13:00,63.9,64.0,29.31,East,90,0.0,0.0,100,0.00,,,0.00,Rainwise IP-100,2013-06-25 10:13:00,
2013-06-25 06:18:00,63.9,64.0,29.31,East,90,0.0,0.0,100,0.00,,,0.00,Rainwise IP-100,2013-06-25 10:18:00,
2013-06-25 06:23:00,64.1,64.0,29.31,East,90,0.0,0.0,100,0.00,,,0.00,Rainwise IP-100,2013-06-25 10:23:00,
2013-06-25 06:28:00,64.4,64.5,29.30,East,90,0.0,0.0,100,0.00,,,0.00,Rainwise IP-100,2013-06-25 10:28:00,
2013-06-25 06:34:00,64.6,64.5,29.30,SW,225,3.0,3.0,100,0.00,,,0.00,Rainwise IP-100,2013-06-25 10:34:00,
2013-06-25 06:39:00,64.9,65.0,29.30,SW,225,2.0,3.0,100,0.00,,,0.00,Rainwise IP-100,2013-06-25 10:39:00,
2013-06-25 06:44:00,64.9,65.0,29.30,SW,225,0.0,3.0,100,0.00,,,0.00,Rainwise IP-100,2013-06-25 10:44:00,
2013-06-25 06:49:00,65.1,65.0,29.30,SW,225,0.0,2.0,100,0.00,,,0.00,Rainwise IP-100,2013-06-25 10:49:00,
2013-06-25 06:54:00,65.3,65.5,29.29,West,270,2.0,2.0,100,0.00,,,0.00,Rainwise IP-100,2013-06-25 10:54:00,
2013-06-25 06:59:00,65.3,65.5,29.30,South,180,3.0,3.0,100,0.00,,,0.00,Rainwise IP-100,2013-06-25 10:59:00,
2013-06-25 07:04:00,65.2,64.5,29.30,SE,135,0.0,6.0,99,0.00,,,0.00,Rainwise IP-100,2013-06-25 11:04:00,
2013-06-25 07:10:00,65.3,65.0,29.30,SSE,157,0.0,5.0,99,0.00,,,0.00,Rainwise IP-100,2013-06-25 11:10:00,
2013-06-25 07:15:00,65.4,65.0,29.30,NE,45,4.0,4.0,98,0.00,,,0.00,Rainwise IP-100,2013-06-25 11:15:00,
2013-06-25 07:20:00,65.6,65.0,29.29,East,90,0.0,5.0,98,0.00,,,0.00,Rainwise IP-100,2013-06-25 11:20:00,
2013-06-25 07:25:00,65.9,65.5,29.30,SSE,157,0.0,2.0,98,0.00,,,0.00,Rainwise IP-100,2013-06-25 11:25:00,
2013-06-25 07:30:00,66.4,66.0,29.30,SE,135,0.0,4.0,98,0.00,,,0.00,Rainwise IP-100,2013-06-25 11:30:00,
2013-06-25 07:35:00,66.9,66.7,29.30,ESE,112,0.0,1.0,98,0.00,,,0.00,Rainwise IP-100,2013-06-25 11:35:00,
2013-06-25 07:40:00,67.6,67.0,29.30,ESE,112,3.0,4.0,98,0.00,,,0.00,Rainwise IP-100,2013-06-25 11:40:00,
2013-06-25 07:45:00,68.0,66.7,29.30,ENE,67,3.0,6.0,96,0.00,,,0.00,Rainwise IP-100,2013-06-25 11:45:00,
2013-06-25 07:47:00,68.1,66.7,29.30,NE,45,1.0,6.0,95,0.00,,,0.00,Rainwise IP-100,2013-06-25 11:47:00,
2013-06-25 07:52:00,68.8,67.0,29.31,East,90,0.0,5.0,95,0.00,,,0.00,Rainwise IP-100,2013-06-25 11:52:00,
2013-06-25 07:57:00,69.0,66.7,29.31,East,90,2.0,5.0,93,0.00,,,0.00,Rainwise IP-100,2013-06-25 11:57:00,
2013-06-25 08:02:00,69.2,67.0,29.31,East,90,2.0,6.0,93,0.00,,,0.00,Rainwise IP-100,2013-06-25 12:02:00,
2013-06-25 08:07:00,69.1,66.3,29.31,ESE,112,4.0,5.0,92,0.00,,,0.00,Rainwise IP-100,2013-06-25 12:07:00,
2013-06-25 08:12:00,68.9,67.0,29.31,ESE,112,4.0,4.0,94,0.00,,,0.00,Rainwise IP-100,2013-06-25 12:12:00,
2013-06-25 08:17:00,69.8,68.0,29.31,ENE,67,4.0,6.0,94,0.00,,,0.00,Rainwise IP-100,2013-06-25 12:17:00,
2013-06-25 08:23:00,70.4,69.0,29.31,South,180,0.0,6.0,94,0.00,,,0.00,Rainwise IP-100,2013-06-25 12:23:00,
2013-06-25 08:28:00,71.2,68.5,29.31,WSW,247,4.0,4.0,91,0.00,,,0.00,Rainwise IP-100,2013-06-25 12:28:00,
2013-06-25 08:33:00,71.7,69.3,29.31,SE,135,2.0,6.0,92,0.00,,,0.00,Rainwise IP-100,2013-06-25 12:33:00,
2013-06-25 08:38:00,72.4,69.7,29.31,SE,135,1.0,2.0,91,0.00,,,0.00,Rainwise IP-100,2013-06-25 12:38:00,
2013-06-25 08:43:00,73.1,70.5,29.31,East,90,2.0,3.0,92,0.00,,,0.00,Rainwise IP-100,2013-06-25 12:43:00,
2013-06-25 08:48:00,73.8,70.0,29.31,East,90,2.0,6.0,88,0.00,,,0.00,Rainwise IP-100,2013-06-25 12:48:00,
2013-06-25 08:53:00,73.3,69.3,29.31,East,90,2.0,6.0,87,0.00,,,0.00,Rainwise IP-100,2013-06-25 12:53:00,
2013-06-25 08:58:00,73.3,69.3,29.31,ESE,112,6.0,6.0,87,0.00,,,0.00,Rainwise IP-100,2013-06-25 12:58:00,
2013-06-25 09:04:00,73.4,69.3,29.31,ENE,67,2.0,6.0,87,0.00,,,0.00,Rainwise IP-100,2013-06-25 13:04:00,
2013-06-25 09:09:00,73.8,69.3,29.31,ENE,67,3.0,6.0,86,0.00,,,0.00,Rainwise IP-100,2013-06-25 13:09:00,
2013-06-25 09:14:00,74.1,69.0,29.31,NE,45,4.0,6.0,84,0.00,,,0.00,Rainwise IP-100,2013-06-25 13:14:00,
2013-06-25 09:19:00,74.3,70.0,29.31,NE,45,3.0,6.0,86,0.00,,,0.00,Rainwise IP-100,2013-06-25 13:19:00,
2013-06-25 09:24:00,74.8,70.0,29.31,East,90,2.0,6.0,85,0.00,,,0.00,Rainwise IP-100,2013-06-25 13:24:00,
2013-06-25 09:29:00,75.7,71.3,29.31,ESE,112,1.0,5.0,86,0.00,,,0.00,Rainwise IP-100,2013-06-25 13:29:00,
2013-06-25 09:34:00,76.3,71.3,29.31,South,180,0.0,5.0,85,0.00,,,0.00,Rainwise IP-100,2013-06-25 13:34:00,
2013-06-25 09:39:00,77.3,71.3,29.31,ESE,112,4.0,6.0,81,0.00,,,0.00,Rainwise IP-100,2013-06-25 13:39:00,
2013-06-25 09:44:00,76.9,71.0,29.32,SE,135,5.0,7.0,81,0.00,,,0.00,Rainwise IP-100,2013-06-25 13:44:00,
2013-06-25 09:49:00,76.9,71.0,29.32,NE,45,2.0,6.0,81,0.00,,,0.00,Rainwise IP-100,2013-06-25 13:49:00,
2013-06-25 09:54:00,77.2,72.0,29.32,NE,45,5.0,6.0,83,0.00,,,0.00,Rainwise IP-100,2013-06-25 13:54:00,
2013-06-25 09:59:00,77.8,71.7,29.32,SE,135,4.0,6.0,81,0.00,,,0.00,Rainwise IP-100,2013-06-25 13:59:00,
2013-06-25 10:04:00,78.9,72.3,29.33,SSW,202,0.0,6.0,80,0.00,,,0.00,Rainwise IP-100,2013-06-25 14:04:00,
2013-06-25 10:09:00,79.1,71.3,29.33,East,90,4.0,7.0,77,0.00,,,0.00,Rainwise IP-100,2013-06-25 14:09:00,
2013-06-25 10:15:00,79.1,72.0,29.33,East,90,4.0,7.0,79,0.00,,,0.00,Rainwise IP-100,2013-06-25 14:15:00,
2013-06-25 10:20:00,79.1,72.0,29.33,ESE,112,5.0,6.0,79,0.00,,,0.00,Rainwise IP-100,2013-06-25 14:20:00,
2013-06-25 10:25:00,79.2,72.3,29.33,East,90,4.0,7.0,79,0.00,,,0.00,Rainwise IP-100,2013-06-25 14:25:00,
2013-06-25 10:30:00,79.7,72.7,29.33,NE,45,6.0,7.0,79,0.00,,,0.00,Rainwise IP-100,2013-06-25 14:30:00,
2013-06-25 10:35:00,80.8,72.7,29.33,SSE,157,2.0,8.0,76,0.00,,,0.00,Rainwise IP-100,2013-06-25 14:35:00,
2013-06-25 10:40:00,81.3,72.3,29.33,ENE,67,6.0,9.0,74,0.00,,,0.00,Rainwise IP-100,2013-06-25 14:40:00,
2013-06-25 10:45:00,81.6,71.7,29.33,WSW,247,3.0,7.0,72,0.00,,,0.00,Rainwise IP-100,2013-06-25 14:45:00,
2013-06-25 10:51:00,81.9,71.7,29.33,SSE,157,0.0,6.0,71,0.00,,,0.00,Rainwise IP-100,2013-06-25 14:51:00,
2013-06-25 10:56:00,82.0,71.7,29.33,ENE,67,3.0,9.0,71,0.00,,,0.00,Rainwise IP-100,2013-06-25 14:56:00,
2013-06-25 11:01:00,81.6,71.7,29.33,East,90,4.0,7.0,72,0.00,,,0.00,Rainwise IP-100,2013-06-25 15:01:00,
2013-06-25 11:06:00,82.2,72.3,29.33,East,90,0.0,6.0,72,0.00,,,0.00,Rainwise IP-100,2013-06-25 15:06:00,
2013-06-25 11:11:00,83.2,73.0,29.33,West,270,3.0,4.0,71,0.00,,,0.00,Rainwise IP-100,2013-06-25 15:11:00,
2013-06-25 11:16:00,84.1,74.0,29.33,SE,135,2.0,7.0,72,0.00,,,0.00,Rainwise IP-100,2013-06-25 15:16:00,
2013-06-25 11:21:00,84.5,73.0,29.33,SW,225,5.0,7.0,68,0.00,,,0.00,Rainwise IP-100,2013-06-25 15:21:00,
2013-06-25 11:26:00,84.5,73.0,29.33,East,90,7.0,7.0,68,0.00,,,0.00,Rainwise IP-100,2013-06-25 15:26:00,
2013-06-25 11:32:00,84.2,73.3,29.33,ESE,112,3.0,8.0,70,0.00,,,0.00,Rainwise IP-100,2013-06-25 15:32:00,
2013-06-25 11:35:00,84.5,73.7,29.33,NW,315,0.0,7.0,70,0.00,,,0.00,Rainwise IP-100,2013-06-25 15:35:00,
2013-06-25 11:40:00,84.5,73.0,29.33,SE,135,4.0,7.0,68,0.00,,,0.00,Rainwise IP-100,2013-06-25 15:40:00,
2013-06-25 11:45:00,84.3,73.3,29.32,ESE,112,5.0,6.0,70,0.00,,,0.00,Rainwise IP-100,2013-06-25 15:45:00,
2013-06-25 11:50:00,84.1,73.3,29.32,ENE,67,6.0,7.0,70,0.00,,,0.00,Rainwise IP-100,2013-06-25 15:50:00,
2013-06-25 11:55:00,83.4,71.7,29.32,NE,45,7.0,8.0,67,0.00,,,0.00,Rainwise IP-100,2013-06-25 15:55:00,
2013-06-25 12:00:00,83.6,73.0,29.32,ENE,67,0.0,7.0,71,0.00,,,0.00,Rainwise IP-100,2013-06-25 16:00:00,
2013-06-25 12:06:00,84.8,73.0,29.32,East,90,6.0,7.0,68,0.00,,,0.00,Rainwise IP-100,2013-06-25 16:06:00,
2013-06-25 12:11:00,84.5,72.3,29.32,ESE,112,3.0,7.0,67,0.00,,,0.00,Rainwise IP-100,2013-06-25 16:11:00,
2013-06-25 12:16:00,84.7,71.7,29.32,NE,45,3.0,6.0,65,0.00,,,0.00,Rainwise IP-100,2013-06-25 16:16:00,
2013-06-25 12:21:00,83.7,72.3,29.32,ENE,67,6.0,7.0,68,0.00,,,0.00,Rainwise IP-100,2013-06-25 16:21:00,
2013-06-25 12:26:00,83.1,70.5,29.32,East,90,2.0,6.0,66,0.00,,,0.00,Rainwise IP-100,2013-06-25 16:26:00,
2013-06-25 12:31:00,83.2,72.0,29.31,NE,45,0.0,4.0,69,0.00,,,0.00,Rainwise IP-100,2013-06-25 16:31:00,
2013-06-25 12:36:00,83.4,72.0,29.31,NNW,337,2.0,4.0,68,0.00,,,0.00,Rainwise IP-100,2013-06-25 16:36:00,
2013-06-25 12:41:00,83.9,69.7,29.31,WNW,292,4.0,6.0,62,0.00,,,0.00,Rainwise IP-100,2013-06-25 16:41:00,
2013-06-25 12:47:00,85.4,72.0,29.31,NNE,22,1.0,10.0,64,0.00,,,0.00,Rainwise IP-100,2013-06-25 16:47:00,
2013-06-25 12:52:00,85.6,66.7,29.30,WNW,292,7.0,9.0,54,0.00,,,0.00,Rainwise IP-100,2013-06-25 16:52:00,
2013-06-25 12:57:00,85.8,66.0,29.30,SW,225,7.0,12.0,52,0.00,,,0.00,Rainwise IP-100,2013-06-25 16:57:00,
2013-06-25 13:02:00,85.6,65.5,29.30,West,270,9.0,12.0,51,0.00,,,0.00,Rainwise IP-100,2013-06-25 17:02:00,
2013-06-25 13:07:00,85.6,66.0,29.30,West,270,5.0,12.0,52,0.00,,,0.00,Rainwise IP-100,2013-06-25 17:07:00,
2013-06-25 13:12:00,85.9,66.0,29.29,WSW,247,9.0,12.0,51,0.00,,,0.00,Rainwise IP-100,2013-06-25 17:12:00,
2013-06-25 13:17:00,85.4,66.7,29.29,West,270,7.0,12.0,54,0.00,,,0.00,Rainwise IP-100,2013-06-25 17:17:00,
2013-06-25 13:23:00,85.4,65.5,29.29,WNW,292,9.0,11.0,51,0.00,,,0.00,Rainwise IP-100,2013-06-25 17:23:00,
2013-06-25 13:28:00,86.1,69.0,29.29,West,270,3.0,10.0,57,0.00,,,0.00,Rainwise IP-100,2013-06-25 17:28:00,
2013-06-25 13:33:00,86.5,66.7,29.28,SW,225,10.0,14.0,52,0.00,,,0.00,Rainwise IP-100,2013-06-25 17:33:00,
2013-06-25 13:38:00,86.2,65.0,29.29,SW,225,8.0,14.0,49,0.00,,,0.00,Rainwise IP-100,2013-06-25 17:38:00,
2013-06-25 13:43:00,86.4,66.0,29.28,SW,225,4.0,15.0,50,0.00,,,0.00,Rainwise IP-100,2013-06-25 17:43:00,
2013-06-25 13:48:00,86.4,64.5,29.28,WSW,247,6.0,12.0,48,0.00,,,0.00,Rainwise IP-100,2013-06-25 17:48:00,
2013-06-25 13:53:00,86.5,66.3,29.27,WSW,247,8.0,12.0,51,0.00,,,0.00,Rainwise IP-100,2013-06-25 17:53:00,
2013-06-25 13:58:00,86.8,66.3,29.27,South,180,1.0,13.0,51,0.00,,,0.00,Rainwise IP-100,2013-06-25 17:58:00,
2013-06-25 14:04:00,86.3,64.0,29.27,SW,225,4.0,14.0,48,0.00,,,0.00,Rainwise IP-100,2013-06-25 18:04:00,
2013-06-25 14:09:00,86.9,66.7,29.27,SSE,157,4.0,10.0,51,0.00,,,0.00,Rainwise IP-100,2013-06-25 18:09:00,
2013-06-25 14:14:00,87.5,65.0,29.26,SW,225,6.0,16.0,47,0.00,,,0.00,Rainwise IP-100,2013-06-25 18:14:00,
2013-06-25 14:19:00,86.9,65.5,29.26,SW,225,9.0,14.0,49,0.00,,,0.00,Rainwise IP-100,2013-06-25 18:19:00,
2013-06-25 14:24:00,86.6,66.3,29.26,WSW,247,7.0,15.0,51,0.00,,,0.00,Rainwise IP-100,2013-06-25 18:24:00,
2013-06-25 14:29:00,86.6,65.0,29.25,WSW,247,7.0,14.0,49,0.00,,,0.00,Rainwise IP-100,2013-06-25 18:29:00,
2013-06-25 14:34:00,86.6,64.5,29.25,WSW,247,6.0,10.0,48,0.00,,,0.00,Rainwise IP-100,2013-06-25 18:34:00,
2013-06-25 14:40:00,86.0,64.0,29.25,WSW,247,6.0,11.0,48,0.00,,,0.00,Rainwise IP-100,2013-06-25 18:40:00,
2013-06-25 14:45:00,86.1,65.5,29.25,WSW,247,6.0,10.0,50,0.00,,,0.00,Rainwise IP-100,2013-06-25 18:45:00,
2013-06-25 14:50:00,86.0,64.0,29.25,South,180,4.0,14.0,48,0.00,,,0.00,Rainwise IP-100,2013-06-25 18:50:00,
2013-06-25 14:55:00,86.4,64.0,29.24,West,270,7.0,12.0,47,0.00,,,0.00,Rainwise IP-100,2013-06-25 18:55:00,
2013-06-25 15:00:00,86.3,64.0,29.24,West,270,3.0,10.0,48,0.00,,,0.00,Rainwise IP-100,2013-06-25 19:00:00,
2013-06-25 15:05:00,86.4,64.0,29.23,WNW,292,6.0,9.0,47,0.00,,,0.00,Rainwise IP-100,2013-06-25 19:05:00,
2013-06-25 15:10:00,85.7,64.0,29.23,SW,225,6.0,10.0,48,0.00,,,0.00,Rainwise IP-100,2013-06-25 19:10:00,
2013-06-25 15:15:00,85.8,64.0,29.23,WSW,247,3.0,9.0,48,0.00,,,0.00,Rainwise IP-100,2013-06-25 19:15:00,
2013-06-25 15:21:00,86.2,65.5,29.23,SW,225,7.0,7.0,50,0.00,,,0.00,Rainwise IP-100,2013-06-25 19:21:00,
2013-06-25 15:26:00,86.6,66.0,29.23,WSW,247,3.0,12.0,50,0.00,,,0.00,Rainwise IP-100,2013-06-25 19:26:00,
2013-06-25 15:31:00,86.3,65.0,29.23,South,180,4.0,13.0,49,0.00,,,0.00,Rainwise IP-100,2013-06-25 19:31:00,
2013-06-25 15:36:00,86.4,67.0,29.23,SW,225,2.0,10.0,53,0.00,,,0.00,Rainwise IP-100,2013-06-25 19:36:00,
2013-06-25 15:41:00,87.1,66.3,29.22,SSE,157,3.0,10.0,50,0.00,,,0.00,Rainwise IP-100,2013-06-25 19:41:00,
2013-06-25 15:46:00,85.9,66.0,29.23,WSW,247,4.0,14.0,51,0.00,,,0.00,Rainwise IP-100,2013-06-25 19:46:00,
2013-06-25 15:51:00,85.7,65.0,29.22,SW,225,2.0,7.0,50,0.00,,,0.00,Rainwise IP-100,2013-06-25 19:51:00,
2013-06-25 15:57:00,85.5,66.0,29.22,WSW,247,0.0,7.0,52,0.00,,,0.00,Rainwise IP-100,2013-06-25 19:57:00,
2013-06-25 16:02:00,84.8,67.5,29.22,WSW,247,5.0,7.0,57,0.00,,,0.00,Rainwise IP-100,2013-06-25 20:02:00,
2013-06-25 16:07:00,84.5,69.0,29.21,SW,225,0.0,5.0,59,0.00,,,0.00,Rainwise IP-100,2013-06-25 20:07:00,
2013-06-25 16:12:00,83.9,67.0,29.21,SW,225,1.0,7.0,57,0.00,,,0.00,Rainwise IP-100,2013-06-25 20:12:00,
2013-06-25 16:17:00,83.4,67.0,29.21,WSW,247,7.0,7.0,58,0.00,,,0.00,Rainwise IP-100,2013-06-25 20:17:00,
2013-06-25 16:22:00,82.9,66.7,29.21,SW,225,6.0,7.0,58,0.00,,,0.00,Rainwise IP-100,2013-06-25 20:22:00,
2013-06-25 16:27:00,82.8,67.5,29.20,SE,135,0.0,7.0,60,0.00,,,0.00,Rainwise IP-100,2013-06-25 20:27:00,
2013-06-25 16:32:00,82.8,68.0,29.20,WSW,247,5.0,7.0,61,0.00,,,0.00,Rainwise IP-100,2013-06-25 20:32:00,
2013-06-25 16:38:00,82.5,66.7,29.20,WSW,247,6.0,8.0,59,0.00,,,0.00,Rainwise IP-100,2013-06-25 20:38:00,
2013-06-25 16:43:00,82.3,67.0,29.21,SW,225,4.0,6.0,60,0.00,,,0.00,Rainwise IP-100,2013-06-25 20:43:00,
2013-06-25 16:48:00,82.1,67.0,29.21,WSW,247,2.0,6.0,61,0.00,,,0.00,Rainwise IP-100,2013-06-25 20:48:00,
2013-06-25 16:53:00,81.8,68.0,29.21,WSW,247,1.0,4.0,63,0.00,,,0.00,Rainwise IP-100,2013-06-25 20:53:00,
2013-06-25 16:58:00,81.2,71.0,29.21,WSW,247,4.0,4.0,70,0.00,,,0.00,Rainwise IP-100,2013-06-25 20:58:00,
2013-06-25 17:03:00,79.9,70.0,29.20,WSW,247,5.0,5.0,72,0.00,,,0.00,Rainwise IP-100,2013-06-25 21:03:00,
2013-06-25 17:08:00,78.4,70.0,29.20,SW,225,5.0,6.0,76,0.00,,,0.00,Rainwise IP-100,2013-06-25 21:08:00,
2013-06-25 17:14:00,77.5,69.7,29.21,SSW,202,3.0,7.0,76,0.00,,,0.00,Rainwise IP-100,2013-06-25 21:14:00,
2013-06-25 17:19:00,76.5,69.7,29.21,WSW,247,9.0,13.0,79,0.12,,,0.02,Rainwise IP-100,2013-06-25 21:19:00,
2013-06-25 17:24:00,74.4,69.3,29.21,WSW,247,4.0,12.0,84,0.24,,,0.04,Rainwise IP-100,2013-06-25 21:24:00,
2013-06-25 17:29:00,73.6,69.3,29.20,WSW,247,4.0,10.0,86,0.18,,,0.05,Rainwise IP-100,2013-06-25 21:29:00,
2013-06-25 17:34:00,72.7,69.7,29.20,WNW,292,3.0,6.0,90,0.06,,,0.05,Rainwise IP-100,2013-06-25 21:34:00,
2013-06-25 17:39:00,72.9,69.0,29.19,SE,135,2.0,15.0,87,0.00,,,0.05,Rainwise IP-100,2013-06-25 21:39:00,
2013-06-25 17:44:00,72.5,69.7,29.19,NW,315,6.0,7.0,90,0.00,,,0.05,Rainwise IP-100,2013-06-25 21:44:00,
2013-06-25 17:49:00,71.9,69.7,29.19,WNW,292,6.0,7.0,92,0.00,,,0.05,Rainwise IP-100,2013-06-25 21:49:00,
2013-06-25 17:55:00,71.5,69.0,29.18,NW,315,6.0,10.0,91,0.00,,,0.05,Rainwise IP-100,2013-06-25 21:55:00,
2013-06-25 18:00:00,71.2,68.5,29.17,WNW,292,6.0,7.0,91,0.06,,,0.06,Rainwise IP-100,2013-06-25 22:00:00,
2013-06-25 18:05:00,70.9,68.5,29.17,NNE,22,3.0,7.0,92,0.06,,,0.06,Rainwise IP-100,2013-06-25 22:05:00,
2013-06-25 18:10:00,70.7,68.5,29.17,NW,315,5.0,7.0,93,0.00,,,0.06,Rainwise IP-100,2013-06-25 22:10:00,
2013-06-25 18:15:00,70.6,68.5,29.16,North,360,0.0,6.0,93,0.00,,,0.06,Rainwise IP-100,2013-06-25 22:15:00,
2013-06-25 18:20:00,70.3,68.0,29.16,North,360,0.0,2.0,92,0.00,,,0.06,Rainwise IP-100,2013-06-25 22:20:00,
2013-06-25 18:25:00,70.2,68.0,29.16,NE,45,0.0,4.0,93,0.06,,,0.07,Rainwise IP-100,2013-06-25 22:25:00,
2013-06-25 18:30:00,70.1,67.5,29.16,NE,45,1.0,1.0,92,0.06,,,0.07,Rainwise IP-100,2013-06-25 22:30:00,
2013-06-25 18:36:00,70.1,67.5,29.16,NE,45,0.0,2.0,92,0.00,,,0.07,Rainwise IP-100,2013-06-25 22:36:00,
2013-06-25 18:41:00,70.3,68.0,29.17,NE,45,0.0,0.0,92,0.00,,,0.07,Rainwise IP-100,2013-06-25 22:41:00,
2013-06-25 18:46:00,70.3,67.5,29.17,NE,45,0.0,0.0,91,0.00,,,0.07,Rainwise IP-100,2013-06-25 22:46:00,
2013-06-25 18:51:00,70.2,67.0,29.18,WNW,292,4.0,8.0,91,0.06,,,0.08,Rainwise IP-100,2013-06-25 22:51:00,
2013-06-25 18:56:00,70.1,67.0,29.18,NW,315,8.0,11.0,91,0.12,,,0.09,Rainwise IP-100,2013-06-25 22:56:00,
2013-06-25 19:01:00,69.9,67.5,29.17,NW,315,4.0,9.0,92,0.06,,,0.09,Rainwise IP-100,2013-06-25 23:01:00,
2013-06-25 19:06:00,69.4,66.7,29.18,East,90,3.0,6.0,91,0.06,,,0.10,Rainwise IP-100,2013-06-25 23:06:00,
2013-06-25 19:11:00,69.3,66.7,29.17,ENE,67,3.0,6.0,91,0.12,,,0.12,Rainwise IP-100,2013-06-25 23:11:00,
2013-06-25 19:17:00,69.2,66.7,29.18,SW,225,2.0,4.0,91,0.18,,,0.13,Rainwise IP-100,2013-06-25 23:17:00,
2013-06-25 19:22:00,69.2,67.0,29.19,SW,225,1.0,6.0,93,0.42,,,0.19,Rainwise IP-100,2013-06-25 23:22:00,
2013-06-25 19:27:00,68.9,67.0,29.19,ESE,112,2.0,6.0,95,0.66,,,0.24,Rainwise IP-100,2013-06-25 23:27:00,
2013-06-25 19:32:00,68.7,67.0,29.17,ENE,67,2.0,4.0,95,0.42,,,0.26,Rainwise IP-100,2013-06-25 23:32:00,
2013-06-25 19:37:00,68.8,67.0,29.17,NE,45,2.0,5.0,95,0.18,,,0.27,Rainwise IP-100,2013-06-25 23:37:00,
2013-06-25 19:42:00,68.9,67.0,29.16,ENE,67,0.0,5.0,95,0.06,,,0.27,Rainwise IP-100,2013-06-25 23:42:00,
2013-06-25 19:47:00,69.2,67.5,29.16,East,90,3.0,3.0,95,0.00,,,0.27,Rainwise IP-100,2013-06-25 23:47:00,
2013-06-25 19:52:00,69.3,67.5,29.16,SW,225,0.0,4.0,95,0.00,,,0.27,Rainwise IP-100,2013-06-25 23:52:00,
2013-06-25 19:58:00,69.3,67.5,29.17,SW,225,0.0,1.0,95,0.00,,,0.27,Rainwise IP-100,2013-06-25 23:58:00,
2013-06-25 20:03:00,69.3,67.5,29.17,SW,225,0.0,0.0,95,0.00,,,0.27,Rainwise IP-100,2013-06-26 00:03:00,
2013-06-25 20:08:00,69.3,68.0,29.17,WSW,247,0.0,3.0,96,0.00,,,0.27,Rainwise IP-100,2013-06-26 00:08:00,
2013-06-25 20:13:00,69.2,68.0,29.17,WNW,292,3.0,5.0,96,0.00,,,0.27,Rainwise IP-100,2013-06-26 00:13:00,
2013-06-25 20:18:00,69.0,67.5,29.17,NW,315,0.0,4.0,96,0.00,,,0.27,Rainwise IP-100,2013-06-26 00:18:00,
2013-06-25 20:23:00,68.9,67.0,29.17,NW,315,0.0,0.0,95,0.00,,,0.27,Rainwise IP-100,2013-06-26 00:23:00,
2013-06-25 20:28:00,68.6,67.0,29.17,NW,315,0.0,0.0,95,0.00,,,0.27,Rainwise IP-100,2013-06-26 00:28:00,
2013-06-25 20:34:00,68.7,67.0,29.17,ENE,67,0.0,3.0,95,0.00,,,0.27,Rainwise IP-100,2013-06-26 00:34:00,
2013-06-25 20:39:00,68.6,67.0,29.17,ENE,67,0.0,0.0,95,0.00,,,0.27,Rainwise IP-100,2013-06-26 00:39:00,
2013-06-25 20:44:00,68.6,67.0,29.17,ESE,112,0.0,0.0,95,0.00,,,0.27,Rainwise IP-100,2013-06-26 00:44:00,
2013-06-25 20:49:00,68.4,67.0,29.17,ESE,112,0.0,0.0,95,0.00,,,0.27,Rainwise IP-100,2013-06-26 00:49:00,
2013-06-25 20:54:00,68.0,67.0,29.17,West,270,2.0,3.0,97,0.00,,,0.27,Rainwise IP-100,2013-06-26 00:54:00,
2013-06-25 20:59:00,67.8,66.7,29.17,West,270,0.0,2.0,96,0.00,,,0.27,Rainwise IP-100,2013-06-26 00:59:00,
2013-06-25 21:04:00,67.7,66.3,29.17,West,270,1.0,2.0,96,0.00,,,0.27,Rainwise IP-100,2013-06-26 01:04:00,
2013-06-25 21:09:00,67.6,67.0,29.17,West,270,3.0,4.0,98,0.00,,,0.27,Rainwise IP-100,2013-06-26 01:09:00,
2013-06-25 21:15:00,67.7,67.5,29.17,West,270,4.0,5.0,100,0.00,,,0.27,Rainwise IP-100,2013-06-26 01:15:00,
2013-06-25 21:20:00,67.7,67.5,29.17,West,270,4.0,5.0,100,0.00,,,0.27,Rainwise IP-100,2013-06-26 01:20:00,
2013-06-25 21:25:00,67.5,67.5,29.17,West,270,1.0,5.0,100,0.00,,,0.27,Rainwise IP-100,2013-06-26 01:25:00,
2013-06-25 21:30:00,67.3,67.5,29.17,WSW,247,0.0,3.0,100,0.00,,,0.27,Rainwise IP-100,2013-06-26 01:30:00,
2013-06-25 21:35:00,67.0,66.7,29.18,WSW,247,0.0,0.0,99,0.00,,,0.27,Rainwise IP-100,2013-06-26 01:35:00,
2013-06-25 21:40:00,66.9,66.7,29.17,WSW,247,0.0,0.0,99,0.00,,,0.27,Rainwise IP-100,2013-06-26 01:40:00,
2013-06-25 21:45:00,66.7,66.3,29.18,WSW,247,0.0,0.0,98,0.00,,,0.27,Rainwise IP-100,2013-06-26 01:45:00,
2013-06-25 21:51:00,66.4,66.0,29.17,WSW,247,0.0,0.0,98,0.00,,,0.27,Rainwise IP-100,2013-06-26 01:51:00,
2013-06-25 21:56:00,66.2,66.0,29.17,WSW,247,0.0,0.0,99,0.00,,,0.27,Rainwise IP-100,2013-06-26 01:56:00,
2013-06-25 22:01:00,66.1,65.5,29.17,WSW,247,0.0,1.0,99,0.00,,,0.27,Rainwise IP-100,2013-06-26 02:01:00,
2013-06-25 22:06:00,66.1,66.0,29.17,West,270,2.0,3.0,100,0.00,,,0.27,Rainwise IP-100,2013-06-26 02:06:00,
2013-06-25 22:11:00,66.3,66.3,29.18,WSW,247,0.0,4.0,100,0.00,,,0.27,Rainwise IP-100,2013-06-26 02:11:00,
2013-06-25 22:16:00,66.3,66.0,29.18,WSW,247,0.0,1.0,98,0.00,,,0.27,Rainwise IP-100,2013-06-26 02:16:00,
2013-06-25 22:21:00,66.4,66.0,29.17,SW,225,3.0,5.0,98,0.00,,,0.27,Rainwise IP-100,2013-06-26 02:21:00,
2013-06-25 22:26:00,66.4,66.0,29.17,SW,225,0.0,4.0,98,0.00,,,0.27,Rainwise IP-100,2013-06-26 02:26:00,
2013-06-25 22:32:00,66.2,66.0,29.17,ENE,67,4.0,0.0,98,0.00,,,0.27,Rainwise IP-100,2013-06-26 02:32:00,
2013-06-25 22:37:00,66.3,66.3,29.17,ENE,67,0.0,5.0,100,0.00,,,0.27,Rainwise IP-100,2013-06-26 02:37:00,
2013-06-25 22:42:00,66.1,65.5,29.18,ENE,67,0.0,0.0,99,0.00,,,0.27,Rainwise IP-100,2013-06-26 02:42:00,
2013-06-25 22:47:00,66.2,66.3,29.17,SW,225,2.0,6.0,100,0.06,,,0.28,Rainwise IP-100,2013-06-26 02:47:00,
2013-06-25 22:52:00,66.3,66.3,29.17,SW,225,2.0,4.0,100,0.06,,,0.28,Rainwise IP-100,2013-06-26 02:52:00,
2013-06-25 22:57:00,66.3,66.3,29.17,SW,225,1.0,3.0,100,0.00,,,0.28,Rainwise IP-100,2013-06-26 02:57:00,
2013-06-25 23:02:00,66.4,66.3,29.17,SW,225,0.0,2.0,100,0.00,,,0.28,Rainwise IP-100,2013-06-26 03:02:00,
2013-06-25 23:08:00,66.4,66.3,29.17,SW,225,0.0,0.0,100,0.00,,,0.28,Rainwise IP-100,2013-06-26 03:08:00,
2013-06-25 23:13:00,66.6,66.3,29.16,SE,135,2.0,2.0,99,0.00,,,0.28,Rainwise IP-100,2013-06-26 03:13:00,
2013-06-25 23:18:00,66.7,66.3,29.17,ESE,112,2.0,3.0,99,0.00,,,0.28,Rainwise IP-100,2013-06-26 03:18:00,
2013-06-25 23:23:00,66.8,66.3,29.16,SW,225,0.0,3.0,99,0.00,,,0.28,Rainwise IP-100,2013-06-26 03:23:00,
2013-06-25 23:28:00,66.9,66.7,29.17,SW,225,0.0,2.0,99,0.00,,,0.28,Rainwise IP-100,2013-06-26 03:28:00,
2013-06-25 23:33:00,67.1,67.0,29.16,SW,225,4.0,5.0,100,0.00,,,0.28,Rainwise IP-100,2013-06-26 03:33:00,
2013-06-25 23:38:00,67.2,67.0,29.17,SW,225,1.0,7.0,100,0.00,,,0.28,Rainwise IP-100,2013-06-26 03:38:00,
2013-06-25 23:43:00,67.2,67.0,29.17,SW,225,0.0,6.0,100,0.00,,,0.28,Rainwise IP-100,2013-06-26 03:43:00,
2013-06-25 23:49:00,67.2,67.0,29.17,SW,225,0.0,6.0,100,0.00,,,0.28,Rainwise IP-100,2013-06-26 03:49:00,
2013-06-25 23:54:00,67.1,67.0,29.17,SW,225,0.0,3.0,100,0.00,,,0.28,Rainwise IP-100,2013-06-26 03:54:00,
2013-06-25 23:59:00,67.1,66.7,29.17,SW,225,0.0,2.0,99,0.00,,,0.28,Rainwise IP-100,2013-06-26 03:59:00,